Location: *
(17.3280°S, 114.7300°W)
Time: 11:28:03
(UTC+00:00)

Envisat - Pass Details

Date: 31 October 2020
Orbit: 764 x 766 km, 98.1° (Epoch: 28 November)

Event Time Altitude Azimuth Distance (km) Brightness Sun altitude
Rises 02:07:08 0° 186° (S) 3,249 6.6 -6.1°
Reaches altitude 10° 02:09:45 10° 198° (SSW) 2,317 6.0 -6.7°
Maximum altitude 02:14:00 27° 254° (WSW) 1,448 5.5 -7.6°
Drops below altitude 10° 02:18:12 10° 311° (NW) 2,298 5.9 -8.6°
Sets 02:20:48 0° 323° (NW) 3,218 6.5 -9.2°
